Time,TemperatureF,DewpointF,PressureIn,WindDirection,WindDirectionDegrees,WindSpeedMPH,WindSpeedGustMPH,Humidity,HourlyPrecipIn,Conditions,Clouds,dailyrainin,SoftwareType,DateUTC
2017-06-24 00:00:00,55.4,41.3,30.02,NNW,335,1.0,1.0,59,0.00,,,0.00,Wunderground v.1.15,2017-06-24 05:00:00,
2017-06-24 00:10:00,55.1,41.5,30.02,NW,305,0.0,1.0,60,0.00,,,0.00,Wunderground v.1.15,2017-06-24 05:10:00,
2017-06-24 00:20:00,54.7,41.5,30.02,NW,309,1.0,1.0,61,0.00,,,0.00,Wunderground v.1.15,2017-06-24 05:20:00,
2017-06-24 00:30:00,54.4,41.6,30.02,WNW,298,0.0,0.0,62,0.00,,,0.00,Wunderground v.1.15,2017-06-24 05:30:00,
2017-06-24 00:40:00,53.9,41.6,30.01,WNW,303,0.0,0.0,63,0.00,,,0.00,Wunderground v.1.15,2017-06-24 05:40:00,
2017-06-24 00:45:00,53.6,41.3,30.01,WNW,302,0.0,2.0,63,0.00,,,0.00,Wunderground v.1.15,2017-06-24 05:45:00,
2017-06-24 00:50:00,53.5,41.6,30.01,WNW,302,0.0,0.0,64,0.00,,,0.00,Wunderground v.1.15,2017-06-24 05:50:00,
2017-06-24 00:55:00,53.5,42.0,30.01,WNW,302,0.0,0.0,65,0.00,,,0.00,Wunderground v.1.15,2017-06-24 05:55:00,
2017-06-24 01:00:00,53.5,41.2,30.01,WNW,300,0.0,0.0,63,0.00,,,0.00,Wunderground v.1.15,2017-06-24 06:00:00,
2017-06-24 01:10:00,53.5,41.6,30.01,WNW,298,0.0,1.0,64,0.00,,,0.00,Wunderground v.1.15,2017-06-24 06:10:00,
2017-06-24 01:20:00,53.3,41.0,30.01,NW,312,0.0,0.0,63,0.00,,,0.00,Wunderground v.1.15,2017-06-24 06:20:00,
2017-06-24 01:30:00,53.3,40.6,30.01,WNW,298,0.0,0.0,62,0.00,,,0.00,Wunderground v.1.15,2017-06-24 06:30:00,
2017-06-24 01:35:00,53.3,40.6,30.01,NW,304,1.0,1.0,62,0.00,,,0.00,Wunderground v.1.15,2017-06-24 06:35:00,
2017-06-24 01:40:00,53.3,40.6,30.01,NW,304,0.0,0.0,62,0.00,,,0.00,Wunderground v.1.15,2017-06-24 06:40:00,
2017-06-24 01:45:00,53.3,40.6,30.01,NW,310,1.0,3.0,62,0.00,,,0.00,Wunderground v.1.15,2017-06-24 06:45:00,
2017-06-24 01:50:00,53.3,41.0,30.01,NW,310,1.0,1.0,63,0.00,,,0.00,Wunderground v.1.15,2017-06-24 06:50:00,
2017-06-24 01:55:00,53.5,41.2,30.01,SSE,162,0.0,1.0,63,0.00,,,0.00,Wunderground v.1.15,2017-06-24 06:55:00,
2017-06-24 02:00:00,53.5,42.0,30.01,West,270,0.0,0.0,65,0.00,,,0.00,Wunderground v.1.15,2017-06-24 07:00:00,
2017-06-24 02:10:00,53.5,42.4,30.01,ESE,105,0.0,0.0,66,0.00,,,0.00,Wunderground v.1.15,2017-06-24 07:10:00,
2017-06-24 02:15:00,53.3,42.2,30.01,NW,305,0.0,4.0,66,0.00,,,0.00,Wunderground v.1.15,2017-06-24 07:15:00,
2017-06-24 02:20:00,53.3,43.0,30.01,WNW,289,1.0,1.0,68,0.00,,,0.00,Wunderground v.1.15,2017-06-24 07:20:00,
2017-06-24 02:25:00,53.2,42.5,30.01,West,261,1.0,1.0,67,0.00,,,0.00,Wunderground v.1.15,2017-06-24 07:25:00,
2017-06-24 02:35:00,53.1,43.2,30.01,WNW,282,0.0,1.0,69,0.00,,,0.00,Wunderground v.1.15,2017-06-24 07:35:00,
2017-06-24 02:40:00,52.8,42.5,30.01,West,274,0.0,0.0,68,0.00,,,0.00,Wunderground v.1.15,2017-06-24 07:40:00,
2017-06-24 02:45:00,52.8,42.9,30.01,West,277,0.0,0.0,69,0.00,,,0.00,Wunderground v.1.15,2017-06-24 07:45:00,
2017-06-24 02:50:00,52.6,42.7,30.00,WNW,285,0.0,0.0,69,0.00,,,0.00,Wunderground v.1.15,2017-06-24 07:50:00,
2017-06-24 03:00:00,52.5,43.0,30.00,WNW,299,0.0,2.0,70,0.00,,,0.00,Wunderground v.1.15,2017-06-24 08:00:00,
2017-06-24 03:10:00,52.3,42.8,30.00,NW,304,1.0,1.0,70,0.00,,,0.00,Wunderground v.1.15,2017-06-24 08:10:00,
2017-06-24 03:15:00,52.3,42.8,30.00,NW,304,0.0,1.0,70,0.00,,,0.00,Wunderground v.1.15,2017-06-24 08:15:00,
2017-06-24 03:20:00,52.3,42.8,30.00,WNW,301,0.0,0.0,70,0.00,,,0.00,Wunderground v.1.15,2017-06-24 08:20:00,
2017-06-24 03:30:00,52.2,42.7,30.00,ESE,116,0.0,0.0,70,0.00,,,0.00,Wunderground v.1.15,2017-06-24 08:30:00,
2017-06-24 03:35:00,52.2,43.1,30.00,ESE,112,0.0,2.0,71,0.00,,,0.00,Wunderground v.1.15,2017-06-24 08:35:00,
2017-06-24 03:40:00,52.2,43.4,30.00,West,279,0.0,0.0,72,0.00,,,0.00,Wunderground v.1.15,2017-06-24 08:40:00,
2017-06-24 03:45:00,52.2,43.1,30.00,ESE,119,0.0,0.0,71,0.00,,,0.00,Wunderground v.1.15,2017-06-24 08:45:00,
2017-06-24 03:50:00,52.2,43.1,30.00,NE,53,0.0,0.0,71,0.00,,,0.00,Wunderground v.1.15,2017-06-24 08:50:00,
2017-06-24 03:55:00,52.0,42.9,30.00,SSE,159,0.0,1.0,71,0.00,,,0.00,Wunderground v.1.15,2017-06-24 08:55:00,
2017-06-24 04:00:00,51.9,42.8,30.00,WNW,302,0.0,2.0,71,0.00,,,0.00,Wunderground v.1.15,2017-06-24 09:00:00,
2017-06-24 04:10:00,51.7,42.2,30.00,NW,313,0.0,0.0,70,0.00,,,0.00,Wunderground v.1.15,2017-06-24 09:10:00,
2017-06-24 04:15:00,51.6,42.5,30.00,NW,313,0.0,0.0,71,0.00,,,0.00,Wunderground v.1.15,2017-06-24 09:15:00,
2017-06-24 04:25:00,51.4,42.3,30.00,ESE,104,0.0,0.0,71,0.00,,,0.00,Wunderground v.1.15,2017-06-24 09:25:00,